カタログに戻る

YAOGAN 31 ADAPTER

運用中LEO
NORAD 47859·DEBRIS·🇨🇳 China
この衛星名は、まだ公式ソースで確認されていません。

打ち上げ Mar 13, 2021 から Jiuquan Satellite Launch Center

Loading…

次のパス (今後24時間)

TLE

最新Source: Space-Track

元期: Sep 14, 2026, 15:45 UTC

1 47859U 21020F   26257.65671771 -.00000072  00000-0  27892-4 0  9992
2 47859  63.4084  36.5353 0179903   2.1079 358.0666 13.44652716270432

AllMySatでYAOGAN 31 ADAPTERをリアルタイム追跡

Download on the App Store